| time (UTC) | temp F | wind direction | speed MPH | gust MPH | rain 1hr in | rain 24hr in | rain mn in | humidity % | barometer mb |
| 20260510160518 | 78 | 220 | 3.0 | 14.0 | 0.00 | 0.01 | 0.01 | 66 | 1014.1 |
| 20260510160032 | 78 | 215 | 5.0 | 14.0 | 0.00 | 0.01 | 0.01 | 66 | 1013.9 |
| 20260510155514 | 78 | 224 | 4.0 | 12.0 | 0.00 | 0.01 | 0.01 | 66 | 1013.7 |
| 20260510155014 | 78 | 141 | 5.0 | 12.0 | 0.00 | 0.01 | 0.01 | 67 | 1013.5 |
| 20260510154549 | 77 | 137 | 3.0 | 11.0 | 0.00 | 0.01 | 0.01 | 67 | 1013.4 |
| 20260510154021 | 76 | 194 | 5.0 | 11.0 | 0.00 | 0.01 | 0.01 | 67 | 1013.3 |
| 20260510153518 | 76 | 161 | 3.0 | 8.0 | 0.00 | 0.01 | 0.01 | 68 | 1013.2 |
| 20260510153033 | 75 | 174 | 3.0 | 10.0 | 0.00 | 0.01 | 0.01 | 67 | 1013.2 |
| 20260510152515 | 75 | 212 | 4.0 | 11.0 | 0.00 | 0.01 | 0.01 | 68 | 1013.4 |
| 20260510152015 | 75 | 204 | 4.0 | 11.0 | 0.00 | 0.01 | 0.01 | 69 | 1013.4 |
| 20260510151531 | 74 | 219 | 3.0 | 11.0 | 0.00 | 0.01 | 0.01 | 70 | 1013.4 |
| 20260510151014 | 73 | 177 | 3.0 | 9.0 | 0.00 | 0.01 | 0.01 | 71 | 1013.6 |
| 20260510150514 | 73 | 225 | 5.0 | 9.0 | 0.00 | 0.01 | 0.01 | 70 | 1013.6 |
| 20260510150035 | 72 | 207 | 3.0 | 9.0 | 0.00 | 0.01 | 0.01 | 73 | 1013.5 |
| 20260510145516 | 72 | 200 | 3.0 | 10.0 | 0.00 | 0.01 | 0.01 | 74 | 1013.5 |
| 20260510145014 | 72 | 216 | 3.0 | 11.0 | 0.00 | 0.01 | 0.01 | 75 | 1013.3 |
| 20260510144542 | 71 | 200 | 3.0 | 11.0 | 0.00 | 0.01 | 0.01 | 75 | 1013.2 |
| 20260510144015 | 71 | 202 | 5.0 | 12.0 | 0.00 | 0.01 | 0.01 | 76 | 1013.2 |
| 20260510143512 | 70 | 178 | 6.0 | 12.0 | 0.00 | 0.01 | 0.01 | 77 | 1013.5 |
| 20260510143040 | 70 | 198 | 4.0 | 10.0 | 0.00 | 0.01 | 0.01 | 78 | 1013.9 |
| 20260510142513 | 70 | 168 | 2.0 | 10.0 | 0.00 | 0.01 | 0.01 | 79 | 1014.0 |
| 20260510142013 | 69 | 157 | 2.0 | 15.0 | 0.00 | 0.01 | 0.01 | 80 | 1014.1 |
| 20260510141531 | 69 | 199 | 5.0 | 15.0 | 0.00 | 0.01 | 0.01 | 80 | 1014.1 |
| 20260510141015 | 69 | 222 | 4.0 | 10.0 | 0.00 | 0.01 | 0.01 | 81 | 1014.2 |
| 20260510140513 | 69 | 0 | 1.0 | 9.0 | 0.00 | 0.01 | 0.01 | 82 | 1014.3 |
| 20260510140038 | 68 | 212 | 3.0 | 14.0 | 0.00 | 0.01 | 0.01 | 82 | 1014.5 |
| 20260510135514 | 68 | 0 | 2.0 | 14.0 | 0.00 | 0.01 | 0.01 | 83 | 1014.8 |
| 20260510135014 | 68 | 173 | 2.0 | 8.0 | 0.00 | 0.01 | 0.01 | 83 | 1014.8 |
| 20260510134533 | 68 | 0 | 1.0 | 4.0 | 0.00 | 0.01 | 0.01 | 84 | 1014.9 |
| 20260510134015 | 68 | 0 | 0.0 | 6.0 | 0.00 | 0.01 | 0.01 | 85 | 1014.9 |
| 20260510133513 | 68 | 0 | 1.0 | 6.0 | 0.00 | 0.01 | 0.01 | 85 | 1015.1 |
| 20260510133032 | 68 | 0 | 0.0 | 3.0 | 0.00 | 0.01 | 0.01 | 86 | 1014.9 |
| 20260510132515 | 68 | 0 | 0.0 | 3.0 | 0.00 | 0.01 | 0.01 | 86 | 1014.8 |
| 20260510132014 | 67 | 0 | 1.0 | 3.0 | 0.00 | 0.01 | 0.01 | 86 | 1014.8 |
| 20260510131536 | 67 | 0 | 1.0 | 7.0 | 0.00 | 0.01 | 0.01 | 86 | 1014.7 |
| 20260510131017 | 67 | 0 | 1.0 | 7.0 | 0.00 | 0.01 | 0.01 | 87 | 1014.6 |
| 20260510130512 | 67 | 131 | 1.0 | 6.0 | 0.00 | 0.01 | 0.01 | 88 | 1014.5 |
| 20260510130033 | 67 | 0 | 0.0 | 6.0 | 0.00 | 0.01 | 0.01 | 88 | 1014.4 |
| 20260510125515 | 67 | 0 | 1.0 | 6.0 | 0.00 | 0.01 | 0.01 | 88 | 1014.2 |
| 20260510125014 | 67 | 171 | 1.0 | 6.0 | 0.00 | 0.01 | 0.01 | 88 | 1014.2 |
| 20260510124530 | 67 | 0 | 0.0 | 4.0 | 0.00 | 0.01 | 0.01 | 88 | 1014.3 |
| 20260510124016 | 67 | 192 | 0.0 | 4.0 | 0.00 | 0.01 | 0.01 | 89 | 1014.3 |
| 20260510123516 | 66 | 185 | 1.0 | 4.0 | 0.00 | 0.01 | 0.01 | 89 | 1014.4 |
| 20260510123034 | 66 | 0 | 0.0 | 2.0 | 0.00 | 0.01 | 0.01 | 89 | 1014.2 |
| 20260510122514 | 66 | 0 | 0.0 | 3.0 | 0.00 | 0.01 | 0.01 | 89 | 1014.1 |
| 20260510122018 | 66 | 0 | 0.0 | 4.0 | 0.00 | 0.01 | 0.01 | 89 | 1014.0 |
| 20260510121530 | 66 | 121 | 1.0 | 4.0 | 0.00 | 0.01 | 0.01 | 89 | 1013.9 |
| 20260510121014 | 66 | 129 | 0.0 | 3.0 | 0.00 | 0.01 | 0.01 | 89 | 1013.9 |
| 20260510120516 | 66 | 139 | 0.0 | 4.0 | 0.00 | 0.01 | 0.01 | 89 | 1014.0 |
| 20260510120032 | 66 | 0 | 0.0 | 4.0 | 0.00 | 0.01 | 0.01 | 89 | 1013.9 |
| 20260510115513 | 66 | 0 | 0.0 | 3.0 | 0.00 | 0.01 | 0.01 | 89 | 1013.8 |
| 20260510115014 | 66 | 0 | 0.0 | 3.0 | 0.00 | 0.01 | 0.01 | 89 | 1013.9 |
| 20260510114532 | 66 | 0 | 0.0 | 4.0 | 0.00 | 0.01 | 0.01 | 89 | 1013.8 |
| 20260510114014 | 66 | 127 | 0.0 | 4.0 | 0.00 | 0.01 | 0.01 | 89 | 1013.8 |
| 20260510113517 | 66 | 160 | 0.0 | 2.0 | 0.00 | 0.01 | 0.01 | 89 | 1013.7 |
| 20260510113031 | 66 | 155 | 0.0 | 2.0 | 0.00 | 0.01 | 0.01 | 89 | 1013.6 |
| 20260510112513 | 66 | 0 | 0.0 | 2.0 | 0.00 | 0.01 | 0.01 | 89 | 1013.7 |
| 20260510112014 | 66 | 0 | 0.0 | 4.0 | 0.00 | 0.01 | 0.01 | 88 | 1013.6 |
| 20260510111530 | 66 | 0 | 0.0 | 6.0 | 0.00 | 0.01 | 0.01 | 88 | 1013.6 |
| 20260510111013 | 66 | 127 | 0.0 | 6.0 | 0.00 | 0.01 | 0.01 | 88 | 1013.6 |
| 20260510110518 | 67 | 0 | 0.0 | 2.0 | 0.00 | 0.01 | 0.01 | 88 | 1013.6 |
| 20260510110038 | 67 | 0 | 0.0 | 2.0 | 0.00 | 0.01 | 0.01 | 88 | 1013.5 |
| 20260510105514 | 67 | 0 | 0.0 | 4.0 | 0.00 | 0.01 | 0.01 | 88 | 1013.5 |
| 20260510105015 | 67 | 0 | 0.0 | 4.0 | 0.01 | 0.01 | 0.01 | 88 | 1013.4 |
| 20260510104532 | 67 | 123 | 1.0 | 4.0 | 0.01 | 0.01 | 0.01 | 87 | 1013.3 |
| 20260510104013 | 67 | 137 | 0.0 | 6.0 | 0.01 | 0.01 | 0.01 | 87 | 1013.0 |
| 20260510103514 | 67 | 128 | 1.0 | 9.0 | 0.01 | 0.01 | 0.01 | 87 | 1013.2 |
| 20260510103034 | 67 | 0 | 0.0 | 9.0 | 0.01 | 0.01 | 0.01 | 87 | 1013.2 |
| 20260510102514 | 67 | 121 | 0.0 | 5.0 | 0.01 | 0.01 | 0.01 | 86 | 1013.2 |
| 20260510102012 | 67 | 0 | 1.0 | 4.0 | 0.01 | 0.01 | 0.01 | 86 | 1013.6 |
| 20260510101534 | 68 | 70 | 1.0 | 7.0 | 0.01 | 0.01 | 0.01 | 86 | 1013.6 |
| 20260510101013 | 68 | 0 | 2.0 | 11.0 | 0.01 | 0.01 | 0.01 | 85 | 1013.6 |
| 20260510100513 | 68 | 80 | 2.0 | 11.0 | 0.01 | 0.01 | 0.01 | 85 | 1013.6 |
| 20260510100032 | 68 | 81 | 2.0 | 10.0 | 0.01 | 0.01 | 0.01 | 84 | 1013.5 |
| 20260510095514 | 69 | 58 | 3.0 | 11.0 | 0.01 | 0.01 | 0.01 | 83 | 1013.0 |
| 20260510095016 | 69 | 100 | 2.0 | 20.0 | 0.00 | 0.00 | 0.00 | 82 | 1013.1 |
| 20260510094545 | 70 | 104 | 5.0 | 20.0 | 0.00 | 0.00 | 0.00 | 80 | 1012.7 |
| 20260510094014 | 70 | 116 | 6.0 | 12.0 | 0.00 | 0.00 | 0.00 | 79 | 1012.5 |
| 20260510093512 | 71 | 79 | 6.0 | 12.0 | 0.00 | 0.00 | 0.00 | 77 | 1013.5 |
| 20260510093048 | 72 | 70 | 5.0 | 12.0 | 0.00 | 0.00 | 0.00 | 75 | 1014.2 |
| 20260510092517 | 72 | 0 | 3.0 | 12.0 | 0.00 | 0.00 | 0.00 | 75 | 1014.1 |
| 20260510092016 | 73 | 359 | 4.0 | 12.0 | 0.00 | 0.00 | 0.00 | 76 | 1013.8 |
| 20260510091541 | 74 | 357 | 4.0 | 12.0 | 0.00 | 0.00 | 0.00 | 82 | 1013.5 |
| 20260510091012 | 75 | 68 | 2.0 | 5.0 | 0.00 | 0.00 | 0.00 | 88 | 1013.4 |
| 20260510090512 | 75 | 61 | 2.0 | 7.0 | 0.00 | 0.00 | 0.00 | 88 | 1012.9 |
| 20260510090034 | 75 | 64 | 1.0 | 7.0 | 0.00 | 0.00 | 0.00 | 87 | 1012.6 |
| 20260510085512 | 75 | 66 | 3.0 | 6.0 | 0.00 | 0.00 | 0.00 | 87 | 1012.5 |
| 20260510085015 | 75 | 72 | 1.0 | 4.0 | 0.00 | 0.00 | 0.00 | 87 | 1012.4 |
| 20260510084533 | 75 | 75 | 1.0 | 4.0 | 0.00 | 0.00 | 0.00 | 87 | 1012.1 |
| 20260510084015 | 75 | 75 | 0.0 | 4.0 | 0.00 | 0.00 | 0.00 | 87 | 1011.8 |
| 20260510083512 | 75 | 0 | 0.0 | 6.0 | 0.00 | 0.00 | 0.00 | 86 | 1011.4 |
| 20260510083033 | 75 | 91 | 1.0 | 6.0 | 0.00 | 0.00 | 0.00 | 86 | 1011.4 |
| 20260510082515 | 75 | 0 | 0.0 | 3.0 | 0.00 | 0.00 | 0.00 | 86 | 1011.6 |
| 20260510082015 | 75 | 0 | 0.0 | 3.0 | 0.00 | 0.00 | 0.00 | 85 | 1011.8 |
| 20260510081530 | 75 | 127 | 0.0 | 3.0 | 0.00 | 0.00 | 0.00 | 85 | 1011.9 |
| 20260510081019 | 75 | 0 | 0.0 | 1.0 | 0.00 | 0.00 | 0.00 | 84 | 1011.7 |
| 20260510080513 | 75 | 0 | 0.0 | 0.0 | 0.00 | 0.00 | 0.00 | 84 | 1011.3 |
| 20260510080033 | 75 | 0 | 0.0 | 0.0 | 0.00 | 0.00 | 0.00 | 84 | 1011.1 |
| 20260510075514 | 75 | 0 | 0.0 | 0.0 | 0.00 | 0.00 | 0.00 | 84 | 1011.0 |
| 20260510075015 | 76 | 0 | 0.0 | 0.0 | 0.00 | 0.00 | 0.00 | 83 | 1010.7 |
| 20260510074532 | 76 | 0 | 0.0 | 0.0 | 0.00 | 0.00 | 0.00 | 83 | 1010.6 |
| 20260510074012 | 76 | 0 | 0.0 | 1.0 | 0.00 | 0.00 | 0.00 | 83 | 1010.5 |
| 20260510073515 | 76 | 0 | 0.0 | 1.0 | 0.00 | 0.00 | 0.00 | 83 | 1010.4 |
| 20260510073040 | 76 | 0 | 0.0 | 1.0 | 0.00 | 0.00 | 0.00 | 83 | 1010.2 |
| 20260510072515 | 76 | 0 | 0.0 | 2.0 | 0.00 | 0.00 | 0.00 | 83 | 1010.1 |
| 20260510072014 | 76 | 0 | 0.0 | 3.0 | 0.00 | 0.00 | 0.00 | 83 | 1010.1 |
| 20260510071541 | 76 | 0 | 0.0 | 3.0 | 0.00 | 0.00 | 0.00 | 83 | 1010.1 |
| 20260510071015 | 76 | 0 | 0.0 | 9.0 | 0.00 | 0.00 | 0.00 | 83 | 1010.2 |
| 20260510070513 | 76 | 0 | 0.0 | 9.0 | 0.00 | 0.00 | 0.00 | 83 | 1010.5 |
| 20260510070034 | 76 | 87 | 1.0 | 6.0 | 0.00 | 0.00 | 0.00 | 82 | 1010.4 |
| 20260510065513 | 76 | 0 | 1.0 | 6.0 | 0.00 | 0.00 | 0.00 | 82 | 1010.7 |
| 20260510065013 | 76 | 0 | 1.0 | 5.0 | 0.00 | 0.00 | 0.00 | 81 | 1011.3 |
| 20260510064532 | 76 | 0 | 0.0 | 5.0 | 0.00 | 0.00 | 0.00 | 81 | 1011.5 |
| 20260510064014 | 76 | 0 | 0.0 | 5.0 | 0.00 | 0.00 | 0.00 | 81 | 1011.6 |
| 20260510063513 | 76 | 0 | 0.0 | 4.0 | 0.00 | 0.00 | 0.00 | 80 | 1011.9 |
| 20260510063032 | 76 | 0 | 0.0 | 0.0 | 0.00 | 0.00 | 0.00 | 80 | 1011.8 |
| 20260510062514 | 76 | 0 | 0.0 | 0.0 | 0.00 | 0.00 | 0.00 | 79 | 1011.7 |
| 20260510062014 | 76 | 0 | 0.0 | 3.0 | 0.00 | 0.00 | 0.00 | 79 | 1011.7 |
| 20260510061532 | 76 | 0 | 0.0 | 3.0 | 0.00 | 0.00 | 0.00 | 79 | 1011.8 |
| 20260510061016 | 76 | 0 | 0.0 | 2.0 | 0.00 | 0.00 | 0.00 | 79 | 1011.4 |
| 20260510060515 | 76 | 0 | 0.0 | 1.0 | 0.00 | 0.00 | 0.00 | 78 | 1010.7 |
| 20260510060032 | 76 | 0 | 0.0 | 6.0 | 0.00 | 0.00 | 0.00 | 78 | 1010.1 |
| 20260510055514 | 76 | 0 | 0.0 | 6.0 | 0.00 | 0.00 | 0.00 | 78 | 1009.7 |
| 20260510055013 | 76 | 0 | 1.0 | 4.0 | 0.00 | 0.00 | 0.00 | 78 | 1009.4 |
| 20260510054532 | 77 | 0 | 0.0 | 3.0 | 0.00 | 0.00 | 0.00 | 78 | 1009.3 |
| 20260510054016 | 77 | 150 | 0.0 | 3.0 | 0.00 | 0.00 | 0.00 | 78 | 1009.3 |
| 20260510053513 | 77 | 0 | 0.0 | 8.0 | 0.00 | 0.00 | 0.00 | 78 | 1009.2 |
| 20260510053050 | 77 | 166 | 1.0 | 8.0 | 0.00 | 0.00 | 0.00 | 77 | 1009.1 |
| 20260510052513 | 77 | 0 | 0.0 | 8.0 | 0.00 | 0.00 | 0.00 | 77 | 1009.1 |
| 20260510052017 | 77 | 0 | 1.0 | 8.0 | 0.00 | 0.00 | 0.00 | 77 | 1009.1 |
| 20260510051530 | 77 | 122 | 0.0 | 4.0 | 0.00 | 0.00 | 0.00 | 76 | 1009.1 |
| 20260510051013 | 77 | 0 | 0.0 | 4.0 | 0.00 | 0.00 | 0.00 | 75 | 1009.1 |
| 20260510050513 | 77 | 0 | 0.0 | 4.0 | 0.00 | 0.00 | 0.00 | 74 | 1009.1 |
| 20260510050033 | 77 | 0 | 0.0 | 5.0 | 0.00 | 0.00 | 0.00 | 73 | 1009.1 |
| 20260510045517 | 77 | 195 | 0.0 | 5.0 | 0.00 | 0.00 | 0.00 | 72 | 1009.0 |
| 20260510045013 | 77 | 0 | 0.0 | 4.0 | 0.00 | 0.00 | 0.00 | 71 | 1008.8 |
| 20260510044534 | 77 | 0 | 0.0 | 3.0 | 0.00 | 0.00 | 0.00 | 70 | 1008.7 |
| 20260510044014 | 77 | 0 | 0.0 | 3.0 | 0.00 | 0.00 | 0.00 | 70 | 1008.5 |
| 20260510043514 | 77 | 0 | 0.0 | 4.0 | 0.00 | 0.00 | 0.00 | 70 | 1008.6 |
| 20260510043042 | 77 | 0 | 0.0 | 4.0 | 0.00 | 0.00 | 0.00 | 70 | 1008.6 |
| 20260510042516 | 77 | 156 | 0.0 | 4.0 | 0.00 | 0.00 | 0.00 | 70 | 1008.6 |
| 20260510042017 | 78 | 0 | 0.0 | 4.0 | 0.00 | 0.00 | 0.00 | 70 | 1008.8 |
| 20260510041535 | 78 | 0 | 0.0 | 4.0 | 0.00 | 0.00 | 0.00 | 70 | 1008.9 |
| 20260510041015 | 78 | 0 | 0.0 | 3.0 | 0.00 | 0.00 | 0.00 | 69 | 1009.0 |
| 20260510040513 | 78 | 0 | 0.0 | 3.0 | 0.00 | 0.00 | 0.00 | 69 | 1008.9 |
| 20260510040039 | 78 | 0 | 0.0 | 3.0 | 0.00 | 0.00 | 0.00 | 68 | 1009.0 |
| 20260510035514 | 78 | 0 | 0.0 | 3.0 | 0.00 | 0.00 | 0.00 | 68 | 1009.1 |
| 20260510035016 | 78 | 0 | 0.0 | 2.0 | 0.00 | 0.00 | 0.00 | 68 | 1009.1 |
| 20260510034532 | 79 | 0 | 0.0 | 5.0 | 0.00 | 0.00 | 0.00 | 67 | 1009.0 |
| 20260510034015 | 79 | 0 | 0.0 | 5.0 | 0.00 | 0.00 | 0.00 | 67 | 1009.0 |
| 20260510033517 | 79 | 194 | 0.0 | 3.0 | 0.00 | 0.00 | 0.00 | 66 | 1008.9 |
| 20260510033033 | 79 | 0 | 0.0 | 2.0 | 0.00 | 0.00 | 0.00 | 66 | 1008.9 |
| 20260510032514 | 79 | 0 | 0.0 | 2.0 | 0.00 | 0.00 | 0.00 | 66 | 1008.9 |
| 20260510032018 | 79 | 0 | 0.0 | 1.0 | 0.00 | 0.00 | 0.00 | 66 | 1008.9 |
| 20260510031534 | 80 | 0 | 0.0 | 1.0 | 0.00 | 0.00 | 0.00 | 66 | 1008.9 |
| 20260510031015 | 80 | 0 | 0.0 | 4.0 | 0.00 | 0.00 | 0.00 | 65 | 1009.0 |
| 20260510030512 | 80 | 0 | 0.0 | 4.0 | 0.00 | 0.00 | 0.00 | 65 | 1009.0 |
| 20260510030031 | 80 | 0 | 0.0 | 3.0 | 0.00 | 0.00 | 0.00 | 65 | 1009.0 |
| 20260510025514 | 80 | 0 | 0.0 | 3.0 | 0.00 | 0.00 | 0.00 | 64 | 1008.9 |
| 20260510025014 | 80 | 0 | 0.0 | 6.0 | 0.00 | 0.00 | 0.00 | 64 | 1009.1 |
| 20260510024531 | 80 | 225 | 0.0 | 6.0 | 0.00 | 0.00 | 0.00 | 63 | 1009.0 |
| 20260510024019 | 81 | 127 | 0.0 | 4.0 | 0.00 | 0.00 | 0.00 | 63 | 1009.0 |
| 20260510023513 | 81 | 112 | 0.0 | 4.0 | 0.00 | 0.00 | 0.00 | 62 | 1009.0 |
| 20260510023032 | 81 | 0 | 1.0 | 4.0 | 0.00 | 0.00 | 0.00 | 62 | 1009.0 |
| 20260510022515 | 81 | 0 | 0.0 | 3.0 | 0.00 | 0.00 | 0.00 | 62 | 1008.9 |
| 20260510022015 | 81 | 0 | 0.0 | 3.0 | 0.00 | 0.00 | 0.00 | 61 | 1008.8 |
| 20260510021541 | 81 | 0 | 0.0 | 3.0 | 0.00 | 0.00 | 0.00 | 61 | 1008.8 |
| 20260510021014 | 82 | 0 | 0.0 | 0.0 | 0.00 | 0.00 | 0.00 | 60 | 1008.8 |
| 20260510020513 | 82 | 0 | 0.0 | 2.0 | 0.00 | 0.00 | 0.00 | 59 | 1008.9 |
| 20260510020032 | 82 | 0 | 0.0 | 2.0 | 0.00 | 0.00 | 0.00 | 59 | 1008.8 |
| 20260510015514 | 82 | 125 | 0.0 | 1.0 | 0.00 | 0.00 | 0.00 | 59 | 1008.6 |
| 20260510015014 | 82 | 125 | 0.0 | 1.0 | 0.00 | 0.00 | 0.00 | 60 | 1008.6 |
| 20260510014535 | 83 | 0 | 0.0 | 2.0 | 0.00 | 0.00 | 0.00 | 60 | 1008.7 |
| 20260510014014 | 83 | 0 | 0.0 | 3.0 | 0.00 | 0.00 | 0.00 | 59 | 1008.6 |
| 20260510013516 | 83 | 0 | 1.0 | 3.0 | 0.00 | 0.00 | 0.00 | 57 | 1008.5 |
| 20260510013035 | 83 | 113 | 0.0 | 2.0 | 0.00 | 0.00 | 0.00 | 54 | 1008.5 |
| 20260510012514 | 83 | 0 | 0.0 | 2.0 | 0.00 | 0.00 | 0.00 | 54 | 1008.5 |
| 20260510012015 | 83 | 0 | 0.0 | 2.0 | 0.00 | 0.00 | 0.00 | 54 | 1008.3 |
| 20260510011541 | 83 | 0 | 0.0 | 2.0 | 0.00 | 0.00 | 0.00 | 53 | 1008.2 |
| 20260510011013 | 83 | 107 | 0.0 | 2.0 | 0.00 | 0.00 | 0.00 | 53 | 1008.2 |
| 20260510010513 | 84 | 110 | 1.0 | 3.0 | 0.00 | 0.00 | 0.00 | 53 | 1008.2 |
| 20260510010032 | 84 | 0 | 0.0 | 4.0 | 0.00 | 0.00 | 0.00 | 53 | 1008.0 |
| 20260510005513 | 84 | 0 | 0.0 | 4.0 | 0.00 | 0.00 | 0.00 | 52 | 1008.0 |
| 20260510005014 | 84 | 106 | 1.0 | 4.0 | 0.00 | 0.00 | 0.00 | 51 | 1008.1 |
| 20260510004536 | 84 | 100 | 1.0 | 4.0 | 0.00 | 0.00 | 0.00 | 51 | 1008.1 |
| 20260510004015 | 84 | 102 | 1.0 | 4.0 | 0.00 | 0.00 | 0.00 | 51 | 1008.0 |
| 20260510003517 | 84 | 97 | 1.0 | 6.0 | 0.00 | 0.00 | 0.00 | 52 | 1008.0 |
| 20260510003031 | 84 | 107 | 1.0 | 6.0 | 0.00 | 0.00 | 0.00 | 51 | 1008.0 |
| 20260510002514 | 84 | 0 | 0.0 | 6.0 | 0.00 | 0.00 | 0.00 | 51 | 1007.9 |
| 20260510002014 | 85 | 132 | 1.0 | 6.0 | 0.00 | 0.00 | 0.00 | 51 | 1008.0 |
| 20260510001534 | 85 | 91 | 1.0 | 7.0 | 0.00 | 0.00 | 0.00 | 52 | 1008.0 |
| 20260510001015 | 85 | 108 | 1.0 | 7.0 | 0.00 | 0.00 | 0.00 | 52 | 1008.1 |
| 20260510000515 | 85 | 79 | 1.0 | 6.0 | 0.00 | 0.00 | 0.00 | 53 | 1008.2 |
| 20260510000045 | 85 | 94 | 1.0 | 6.0 | 0.00 | 0.00 | 0.00 | 52 | 1008.1 |
| 20260509235516 | 85 | 58 | 1.0 | 4.0 | 0.00 | 0.00 | 0.00 | 52 | 1008.1 |
| 20260509235014 | 86 | 135 | 1.0 | 6.0 | 0.00 | 0.00 | 0.00 | 53 | 1008.1 |
| 20260509234534 | 86 | 133 | 1.0 | 6.0 | 0.00 | 0.00 | 0.00 | 52 | 1008.1 |
| 20260509234018 | 86 | 116 | 1.0 | 6.0 | 0.00 | 0.00 | 0.00 | 53 | 1008.0 |
| 20260509233515 | 86 | 117 | 1.0 | 6.0 | 0.00 | 0.00 | 0.00 | 53 | 1008.1 |
| 20260509233033 | 86 | 0 | 0.0 | 3.0 | 0.00 | 0.00 | 0.00 | 53 | 1008.2 |
| 20260509232513 | 86 | 112 | 0.0 | 3.0 | 0.00 | 0.00 | 0.00 | 53 | 1008.3 |
| 20260509232014 | 86 | 0 | 0.0 | 7.0 | 0.00 | 0.00 | 0.00 | 53 | 1008.2 |
| 20260509231531 | 87 | 111 | 3.0 | 7.0 | 0.00 | 0.00 | 0.00 | 53 | 1008.1 |
| 20260509231019 | 87 | 134 | 2.0 | 5.0 | 0.00 | 0.00 | 0.00 | 53 | 1008.1 |
| 20260509230512 | 87 | 0 | 1.0 | 8.0 | 0.00 | 0.00 | 0.00 | 53 | 1008.2 |
| 20260509230034 | 87 | 0 | 0.0 | 8.0 | 0.00 | 0.00 | 0.00 | 53 | 1008.2 |
| 20260509225513 | 88 | 135 | 2.0 | 9.0 | 0.00 | 0.00 | 0.00 | 52 | 1008.2 |
| 20260509225014 | 88 | 139 | 3.0 | 9.0 | 0.00 | 0.00 | 0.00 | 53 | 1008.2 |
| 20260509224531 | 88 | 209 | 0.0 | 5.0 | 0.00 | 0.00 | 0.00 | 52 | 1008.2 |
| 20260509224015 | 89 | 142 | 1.0 | 7.0 | 0.00 | 0.00 | 0.00 | 52 | 1008.2 |
| 20260509223517 | 89 | 140 | 2.0 | 8.0 | 0.00 | 0.00 | 0.00 | 51 | 1008.2 |
| 20260509223032 | 89 | 122 | 2.0 | 8.0 | 0.00 | 0.00 | 0.00 | 51 | 1008.0 |
| 20260509222512 | 90 | 0 | 0.0 | 4.0 | 0.00 | 0.00 | 0.00 | 51 | 1008.2 |
| 20260509222019 | 90 | 83 | 1.0 | 4.0 | 0.00 | 0.00 | 0.00 | 51 | 1008.3 |
| 20260509221533 | 90 | 88 | 1.0 | 6.0 | 0.00 | 0.00 | 0.00 | 49 | 1008.1 |
| 20260509221014 | 92 | 133 | 2.0 | 6.0 | 0.00 | 0.00 | 0.00 | 48 | 1008.2 |
| 20260509220514 | 93 | 126 | 1.0 | 6.0 | 0.00 | 0.00 | 0.00 | 48 | 1008.2 |
| 20260509220034 | 93 | 181 | 1.0 | 4.0 | 0.00 | 0.00 | 0.00 | 49 | 1008.1 |
| 20260509215512 | 94 | 0 | 1.0 | 4.0 | 0.00 | 0.00 | 0.00 | 47 | 1008.2 |
| 20260509215014 | 93 | 128 | 1.0 | 7.0 | 0.00 | 0.00 | 0.00 | 48 | 1008.2 |
| 20260509214537 | 93 | 0 | 2.0 | 7.0 | 0.00 | 0.00 | 0.00 | 48 | 1008.3 |
| 20260509214014 | 93 | 142 | 0.0 | 6.0 | 0.00 | 0.00 | 0.00 | 48 | 1008.3 |
| 20260509213514 | 93 | 104 | 1.0 | 6.0 | 0.00 | 0.00 | 0.00 | 49 | 1008.3 |
| 20260509213035 | 93 | 84 | 0.0 | 5.0 | 0.00 | 0.00 | 0.00 | 49 | 1008.4 |
| 20260509212517 | 92 | 42 | 2.0 | 5.0 | 0.00 | 0.00 | 0.00 | 50 | 1008.4 |
| 20260509212015 | 93 | 102 | 1.0 | 6.0 | 0.00 | 0.00 | 0.00 | 49 | 1008.5 |
| 20260509211532 | 93 | 83 | 2.0 | 6.0 | 0.00 | 0.00 | 0.00 | 49 | 1008.5 |
| 20260509211013 | 92 | 0 | 0.0 | 7.0 | 0.00 | 0.00 | 0.00 | 49 | 1008.4 |
| 20260509210514 | 92 | 0 | 1.0 | 7.0 | 0.00 | 0.00 | 0.00 | 50 | 1008.6 |
| 20260509210034 | 91 | 77 | 1.0 | 3.0 | 0.00 | 0.00 | 0.00 | 51 | 1008.6 |
| 20260509205515 | 91 | 94 | 0.0 | 4.0 | 0.00 | 0.00 | 0.00 | 51 | 1008.7 |
| 20260509205015 | 92 | 0 | 1.0 | 8.0 | 0.00 | 0.00 | 0.00 | 50 | 1008.8 |
| 20260509204536 | 92 | 54 | 1.0 | 8.0 | 0.00 | 0.00 | 0.00 | 51 | 1008.9 |
| 20260509204015 | 92 | 0 | 2.0 | 5.0 | 0.00 | 0.00 | 0.00 | 51 | 1008.9 |
| 20260509203514 | 92 | 0 | 1.0 | 7.0 | 0.00 | 0.00 | 0.00 | 51 | 1008.9 |
| 20260509203031 | 91 | 120 | 2.0 | 7.0 | 0.00 | 0.00 | 0.00 | 52 | 1009.1 |
| 20260509202513 | 91 | 0 | 0.0 | 5.0 | 0.00 | 0.00 | 0.00 | 50 | 1009.2 |
| 20260509202016 | 91 | 0 | 1.0 | 5.0 | 0.00 | 0.00 | 0.00 | 52 | 1009.1 |
| 20260509201529 | 90 | 12 | 0.0 | 5.0 | 0.00 | 0.00 | 0.00 | 52 | 1009.1 |
| 20260509201014 | 90 | 355 | 2.0 | 5.0 | 0.00 | 0.00 | 0.00 | 53 | 1009.3 |
| 20260509200516 | 89 | 0 | 0.0 | 3.0 | 0.00 | 0.00 | 0.00 | 54 | 1009.2 |
| 20260509200032 | 89 | 349 | 1.0 | 8.0 | 0.00 | 0.00 | 0.00 | 52 | 1009.3 |
| 20260509195512 | 89 | 353 | 1.0 | 8.0 | 0.00 | 0.00 | 0.00 | 51 | 1009.3 |
| 20260509195013 | 89 | 52 | 1.0 | 3.0 | 0.00 | 0.00 | 0.00 | 53 | 1009.2 |
| 20260509194534 | 88 | 0 | 0.0 | 4.0 | 0.00 | 0.00 | 0.00 | 55 | 1009.2 |
| 20260509194016 | 88 | 0 | 1.0 | 5.0 | 0.00 | 0.00 | 0.00 | 54 | 1009.3 |
| 20260509193515 | 88 | 74 | 2.0 | 5.0 | 0.00 | 0.00 | 0.00 | 57 | 1009.3 |
| 20260509193034 | 87 | 0 | 0.0 | 5.0 | 0.00 | 0.00 | 0.00 | 57 | 1009.5 |
| 20260509192514 | 87 | 0 | 0.0 | 5.0 | 0.00 | 0.00 | 0.00 | 56 | 1009.5 |
| 20260509192013 | 88 | 121 | 1.0 | 4.0 | 0.00 | 0.00 | 0.00 | 57 | 1009.7 |
| 20260509191547 | 88 | 96 | 1.0 | 4.0 | 0.00 | 0.00 | 0.00 | 56 | 1009.6 |
| 20260509191015 | 86 | 0 | 1.0 | 4.0 | 0.00 | 0.00 | 0.00 | 60 | 1009.7 |
| 20260509190517 | 86 | 353 | 0.0 | 4.0 | 0.00 | 0.00 | 0.00 | 60 | 1009.7 |
| 20260509190033 | 86 | 339 | 1.0 | 5.0 | 0.00 | 0.00 | 0.00 | 60 | 1009.7 |
| 20260509185515 | 86 | 0 | 2.0 | 5.0 | 0.00 | 0.00 | 0.00 | 60 | 1009.8 |
| 20260509185013 | 85 | 46 | 1.0 | 7.0 | 0.00 | 0.00 | 0.00 | 62 | 1009.7 |
| 20260509184543 | 86 | 331 | 3.0 | 7.0 | 0.00 | 0.00 | 0.00 | 60 | 1009.8 |
| 20260509184015 | 85 | 0 | 1.0 | 5.0 | 0.00 | 0.00 | 0.00 | 63 | 1009.8 |
| 20260509183516 | 85 | 0 | 0.0 | 9.0 | 0.00 | 0.00 | 0.00 | 62 | 1009.8 |
| 20260509183043 | 85 | 328 | 2.0 | 9.0 | 0.00 | 0.00 | 0.00 | 62 | 1009.9 |
| 20260509182515 | 85 | 11 | 0.0 | 4.0 | 0.00 | 0.00 | 0.00 | 63 | 1009.8 |
| 20260509182015 | 85 | 356 | 0.0 | 4.0 | 0.00 | 0.00 | 0.00 | 63 | 1009.8 |
| 20260509181532 | 85 | 335 | 1.0 | 5.0 | 0.00 | 0.00 | 0.00 | 63 | 1009.9 |
| 20260509181017 | 85 | 54 | 1.0 | 8.0 | 0.00 | 0.00 | 0.00 | 63 | 1009.9 |
| 20260509180517 | 85 | 0 | 1.0 | 8.0 | 0.00 | 0.00 | 0.00 | 64 | 1010.0 |
| 20260509180036 | 84 | 0 | 1.0 | 8.0 | 0.00 | 0.00 | 0.00 | 64 | 1009.9 |
| 20260509175518 | 84 | 0 | 2.0 | 7.0 | 0.00 | 0.00 | 0.00 | 63 | 1010.0 |
| 20260509175019 | 84 | 74 | 2.0 | 7.0 | 0.00 | 0.00 | 0.00 | 63 | 1009.9 |
| 20260509174532 | 85 | 349 | 1.0 | 6.0 | 0.00 | 0.00 | 0.00 | 63 | 1010.1 |
| 20260509174015 | 85 | 349 | 2.0 | 6.0 | 0.00 | 0.00 | 0.00 | 63 | 1010.2 |
| 20260509173517 | 85 | 35 | 0.0 | 4.0 | 0.00 | 0.00 | 0.00 | 64 | 1010.2 |
| 20260509173034 | 84 | 35 | 1.0 | 5.0 | 0.00 | 0.00 | 0.00 | 65 | 1010.2 |
| 20260509172516 | 84 | 12 | 1.0 | 9.0 | 0.00 | 0.00 | 0.00 | 66 | 1010.3 |
| 20260509172015 | 84 | 0 | 3.0 | 9.0 | 0.00 | 0.00 | 0.00 | 65 | 1010.4 |
| 20260509171533 | 84 | 358 | 2.0 | 6.0 | 0.00 | 0.00 | 0.00 | 65 | 1010.5 |
| 20260509171013 | 83 | 339 | 1.0 | 6.0 | 0.00 | 0.00 | 0.00 | 67 | 1010.5 |
| 20260509170513 | 83 | 336 | 0.0 | 6.0 | 0.00 | 0.00 | 0.00 | 67 | 1010.5 |
| 20260509170034 | 83 | 0 | 1.0 | 8.0 | 0.00 | 0.00 | 0.00 | 68 | 1010.5 |
| 20260509165514 | 82 | 332 | 3.0 | 8.0 | 0.00 | 0.00 | 0.00 | 67 | 1010.5 |
| 20260509165014 | 82 | 335 | 1.0 | 4.0 | 0.00 | 0.00 | 0.00 | 69 | 1010.5 |
| 20260509164532 | 82 | 0 | 0.0 | 8.0 | 0.00 | 0.00 | 0.00 | 70 | 1010.5 |
| 20260509164014 | 81 | 0 | 0.0 | 8.0 | 0.00 | 0.00 | 0.00 | 70 | 1010.4 |
| 20260509163515 | 81 | 333 | 1.0 | 5.0 | 0.00 | 0.00 | 0.00 | 71 | 1010.5 |
| 20260509163039 | 81 | 0 | 1.0 | 5.0 | 0.00 | 0.00 | 0.00 | 71 | 1010.6 |
| 20260509162513 | 80 | 333 | 1.0 | 5.0 | 0.00 | 0.00 | 0.00 | 73 | 1010.5 |
| 20260509162016 | 80 | 331 | 1.0 | 6.0 | 0.00 | 0.00 | 0.00 | 73 | 1010.5 |
| 20260509161530 | 80 | 331 | 3.0 | 6.0 | 0.00 | 0.00 | 0.00 | 73 | 1010.4 |
| 20260509161013 | 79 | 338 | 2.0 | 6.0 | 0.00 | 0.00 | 0.00 | 74 | 1010.3 |